GALAXY 3C (G-3C)

Last updated on Wed Sep 09 2026 00:02:58 GMT+0000 (Coordinated Universal Time)

1 27445U 02030A 26251.47475012 -.00000172 00000+0 00000+0 0 9992 2 27445 3.9494 76.9112 0001311 48.8899 297.7962 1.00271298 47329
UTC large
Height (km)
Speed (km/s)
/
Latitude / Longitude
Inclination (degrees)
Orbital Period (minutes)
Azimuth
Elevation
Range (km)
Doppler Factor

Next 0 passes for location: London (51.5072 / 0.1276)

No passes found over London.
GALAXY 3C (G-3C)